Location: Ponte Samoggia
(44.5667°N, 11.1333°E)
Time: 17:21:54
(UTC+00:00)

Lacrosse 5 rocket - Pass Details

Date: 26 May 2022
Orbit: 456 x 629 km, 57.0° (Epoch: 06 July)

Event Time Altitude Azimuth Distance (km) Brightness Sun altitude
Exits shadow 02:57:01 - 267° (W) 2,238 3.9 -6.8°
Reaches altitude 10° 02:58:26 10° 276° (W) 1,746 3.5 -6.6°
Maximum altitude 03:01:49 27° 335° (NNW) 1,064 2.9 -6.1°
Drops below altitude 10° 03:05:23 10° 34° (NNE) 1,846 5.4 -5.6°
Sets 03:07:58 0° 46° (NE) 2,780 7.5 -5.2°
